| time (UTC) | temp C | wind direction | speed KPH | gust KPH | rain 1hr cm | rain 24hr cm | rain mn cm | humidity % | barometer mb |
| 20260507033040 | 17 | 0 | 1.6 | 4.8 | 0.00 | 0.00 | 0.00 | 69 | 1017.1 |
| 20260507031548 | 17 | 329 | 1.6 | 11.3 | 0.00 | 0.00 | 0.00 | 69 | 1016.9 |
| 20260507030049 | 18 | 0 | 0.0 | 4.8 | 0.00 | 0.00 | 0.00 | 68 | 1016.7 |
| 20260507024550 | 18 | 296 | 0.0 | 6.4 | 0.00 | 0.00 | 0.00 | 68 | 1016.6 |
| 20260507023052 | 18 | 0 | 1.6 | 8.0 | 0.00 | 0.00 | 0.00 | 67 | 1016.5 |
| 20260507021541 | 18 | 327 | 1.6 | 9.7 | 0.00 | 0.00 | 0.00 | 66 | 1016.4 |
| 20260507020048 | 19 | 351 | 3.2 | 11.3 | 0.00 | 0.00 | 0.00 | 64 | 1016.4 |
| 20260507014537 | 20 | 289 | 1.6 | 9.7 | 0.00 | 0.00 | 0.00 | 63 | 1016.2 |
| 20260507013044 | 20 | 267 | 1.6 | 6.4 | 0.00 | 0.00 | 0.00 | 62 | 1016.1 |
| 20260507011547 | 20 | 312 | 3.2 | 9.7 | 0.00 | 0.00 | 0.00 | 62 | 1015.9 |
| 20260507010044 | 20 | 264 | 1.6 | 14.5 | 0.00 | 0.00 | 0.00 | 61 | 1015.9 |
| 20260507004540 | 21 | 0 | 3.2 | 12.9 | 0.00 | 0.00 | 0.00 | 59 | 1015.8 |
| 20260507003049 | 22 | 234 | 3.2 | 11.3 | 0.00 | 0.00 | 0.00 | 58 | 1015.9 |
| 20260507001604 | 22 | 290 | 6.4 | 16.1 | 0.00 | 0.00 | 0.00 | 56 | 1015.7 |
| 20260507000042 | 23 | 302 | 3.2 | 9.7 | 0.00 | 0.00 | 0.00 | 53 | 1015.7 |
| 20260506234540 | 23 | 319 | 3.2 | 20.9 | 0.00 | 0.00 | 0.00 | 53 | 1015.6 |
| 20260506233040 | 23 | 337 | 3.2 | 12.9 | 0.00 | 0.00 | 0.00 | 53 | 1015.6 |
| 20260506231540 | 23 | 348 | 4.8 | 12.9 | 0.00 | 0.00 | 0.00 | 52 | 1015.5 |
| 20260506230052 | 23 | 310 | 3.2 | 16.1 | 0.00 | 0.00 | 0.00 | 52 | 1015.8 |
| 20260506224544 | 24 | 317 | 3.2 | 16.1 | 0.00 | 0.00 | 0.00 | 50 | 1015.8 |
| 20260506223041 | 24 | 229 | 1.6 | 9.7 | 0.00 | 0.00 | 0.00 | 49 | 1016.1 |
| 20260506221551 | 25 | 252 | 1.6 | 8.0 | 0.00 | 0.00 | 0.00 | 48 | 1016.1 |
| 20260506220040 | 24 | 244 | 3.2 | 9.7 | 0.00 | 0.00 | 0.00 | 49 | 1016.4 |
| 20260506214553 | 23 | 228 | 3.2 | 9.7 | 0.00 | 0.00 | 0.00 | 51 | 1016.6 |
| 20260506213037 | 22 | 189 | 3.2 | 12.9 | 0.00 | 0.00 | 0.00 | 52 | 1016.7 |
| 20260506211543 | 22 | 216 | 6.4 | 14.5 | 0.00 | 0.00 | 0.00 | 54 | 1016.8 |
| 20260506210053 | 22 | 180 | 6.4 | 16.1 | 0.00 | 0.00 | 0.00 | 54 | 1017.0 |
| 20260506204553 | 22 | 183 | 6.4 | 16.1 | 0.00 | 0.00 | 0.00 | 53 | 1017.2 |
| 20260506203042 | 21 | 187 | 6.4 | 14.5 | 0.00 | 0.00 | 0.00 | 57 | 1017.4 |
| 20260506201538 | 21 | 186 | 6.4 | 17.7 | 0.00 | 0.00 | 0.00 | 56 | 1017.5 |
| 20260506200039 | 21 | 199 | 6.4 | 14.5 | 0.00 | 0.00 | 0.00 | 58 | 1017.7 |
| 20260506194542 | 21 | 238 | 6.4 | 16.1 | 0.00 | 0.00 | 0.00 | 59 | 1017.8 |
| 20260506193044 | 21 | 196 | 6.4 | 14.5 | 0.00 | 0.00 | 0.00 | 62 | 1018.0 |
| 20260506191539 | 21 | 191 | 4.8 | 17.7 | 0.00 | 0.00 | 0.00 | 61 | 1018.1 |
| 20260506190038 | 21 | 148 | 3.2 | 14.5 | 0.00 | 0.00 | 0.00 | 61 | 1018.2 |
| 20260506184547 | 20 | 202 | 4.8 | 12.9 | 0.00 | 0.00 | 0.00 | 63 | 1018.4 |
| 20260506183044 | 20 | 130 | 6.4 | 16.1 | 0.00 | 0.00 | 0.00 | 63 | 1018.4 |
| 20260506181604 | 20 | 220 | 3.2 | 14.5 | 0.00 | 0.00 | 0.00 | 62 | 1018.4 |
| 20260506180037 | 20 | 171 | 4.8 | 16.1 | 0.00 | 0.00 | 0.00 | 63 | 1018.3 |
| 20260506174538 | 20 | 177 | 1.6 | 14.5 | 0.00 | 0.00 | 0.00 | 62 | 1018.4 |
| 20260506173046 | 20 | 186 | 4.8 | 11.3 | 0.00 | 0.00 | 0.00 | 62 | 1018.5 |
| 20260506171541 | 20 | 111 | 1.6 | 6.4 | 0.00 | 0.00 | 0.00 | 63 | 1018.5 |
| 20260506170045 | 19 | 205 | 3.2 | 11.3 | 0.00 | 0.00 | 0.00 | 64 | 1018.5 |
| 20260506164551 | 18 | 180 | 1.6 | 8.0 | 0.00 | 0.00 | 0.00 | 67 | 1018.4 |
| 20260506163042 | 18 | 165 | 1.6 | 9.7 | 0.00 | 0.00 | 0.00 | 69 | 1018.5 |
| 20260506161540 | 17 | 196 | 4.8 | 11.3 | 0.00 | 0.00 | 0.00 | 74 | 1018.5 |
| 20260506160045 | 17 | 156 | 1.6 | 11.3 | 0.00 | 0.00 | 0.00 | 79 | 1018.5 |
| 20260506154543 | 16 | 207 | 1.6 | 9.7 | 0.00 | 0.00 | 0.00 | 82 | 1018.3 |
| 20260506153037 | 16 | 61 | 1.6 | 8.0 | 0.00 | 0.00 | 0.00 | 84 | 1018.5 |
| 20260506151544 | 15 | 0 | 1.6 | 8.0 | 0.00 | 0.00 | 0.00 | 86 | 1018.5 |
| 20260506150049 | 14 | 55 | 1.6 | 6.4 | 0.00 | 0.00 | 0.00 | 86 | 1018.5 |
| 20260506144538 | 13 | 137 | 1.6 | 6.4 | 0.00 | 0.00 | 0.00 | 87 | 1018.5 |
| 20260506143040 | 12 | 0 | 0.0 | 4.8 | 0.00 | 0.00 | 0.00 | 87 | 1018.5 |
| 20260506141545 | 12 | 0 | 0.0 | 0.0 | 0.00 | 0.00 | 0.00 | 86 | 1018.3 |
| 20260506140044 | 11 | 0 | 0.0 | 0.0 | 0.00 | 0.00 | 0.00 | 86 | 1018.2 |
| 20260506134541 | 10 | 0 | 0.0 | 0.0 | 0.00 | 0.00 | 0.00 | 86 | 1018.3 |
| 20260506133050 | 10 | 0 | 0.0 | 0.0 | 0.00 | 0.00 | 0.00 | 85 | 1018.2 |
| 20260506131538 | 11 | 0 | 0.0 | 0.0 | 0.00 | 0.00 | 0.00 | 85 | 1017.9 |
| 20260506130038 | 11 | 0 | 0.0 | 0.0 | 0.00 | 0.00 | 0.00 | 85 | 1017.8 |
| 20260506124537 | 11 | 0 | 0.0 | 0.0 | 0.00 | 0.00 | 0.00 | 85 | 1017.7 |
| 20260506123044 | 11 | 0 | 0.0 | 0.0 | 0.00 | 0.00 | 0.00 | 85 | 1017.5 |
| 20260506121545 | 11 | 0 | 0.0 | 0.0 | 0.00 | 0.00 | 0.00 | 85 | 1017.5 |
| 20260506120056 | 11 | 0 | 0.0 | 0.0 | 0.00 | 0.00 | 0.00 | 84 | 1017.5 |
| 20260506114544 | 11 | 0 | 0.0 | 0.0 | 0.00 | 0.08 | 0.00 | 84 | 1017.4 |
| 20260506113037 | 11 | 0 | 0.0 | 0.0 | 0.00 | 0.08 | 0.00 | 84 | 1017.4 |
| 20260506111546 | 11 | 0 | 0.0 | 0.0 | 0.00 | 0.08 | 0.00 | 84 | 1017.1 |
| 20260506110048 | 11 | 0 | 0.0 | 0.0 | 0.00 | 0.08 | 0.00 | 83 | 1017.2 |
| 20260506104553 | 12 | 0 | 0.0 | 0.0 | 0.00 | 0.36 | 0.00 | 83 | 1017.3 |
| 20260506103044 | 12 | 0 | 0.0 | 0.0 | 0.00 | 0.36 | 0.00 | 83 | 1017.4 |
| 20260506101544 | 12 | 0 | 0.0 | 0.0 | 0.00 | 0.36 | 0.00 | 83 | 1017.3 |
| 20260506100053 | 12 | 0 | 0.0 | 0.0 | 0.00 | 0.36 | 0.00 | 82 | 1017.3 |
| 20260506094543 | 11 | 0 | 0.0 | 0.0 | 0.00 | 0.38 | 0.00 | 82 | 1017.4 |
| 20260506093040 | 12 | 0 | 0.0 | 0.0 | 0.00 | 0.38 | 0.00 | 81 | 1017.4 |
| 20260506091544 | 12 | 0 | 0.0 | 0.0 | 0.00 | 0.38 | 0.00 | 81 | 1017.4 |
| 20260506090044 | 12 | 0 | 0.0 | 0.0 | 0.00 | 0.38 | 0.00 | 81 | 1017.5 |
| 20260506084610 | 12 | 0 | 0.0 | 0.0 | 0.00 | 0.41 | 0.00 | 81 | 1017.6 |
| 20260506083045 | 12 | 0 | 0.0 | 0.0 | 0.00 | 0.41 | 0.00 | 80 | 1017.7 |
| 20260506081556 | 12 | 0 | 0.0 | 0.0 | 0.00 | 0.41 | 0.00 | 79 | 1017.7 |
| 20260506073049 | 13 | 0 | 0.0 | 0.0 | 0.00 | 0.43 | 0.00 | 78 | 1017.7 |
| 20260506071544 | 13 | 0 | 0.0 | 0.0 | 0.00 | 0.43 | 0.00 | 77 | 1017.7 |
| 20260506061537 | 14 | 0 | 0.0 | 0.0 | 0.00 | 0.51 | 0.43 | 74 | 1017.3 |
| 20260506044544 | 15 | 0 | 0.0 | 0.0 | 0.00 | 0.51 | 0.43 | 67 | 1016.5 |
| 20260506043045 | 16 | 0 | 0.0 | 1.6 | 0.00 | 0.51 | 0.43 | 66 | 1016.5 |
| 20260506041538 | 16 | 0 | 0.0 | 0.0 | 0.00 | 0.51 | 0.43 | 65 | 1016.3 |
| 20260506040040 | 16 | 0 | 0.0 | 1.6 | 0.00 | 0.51 | 0.43 | 63 | 1016.0 |
| 20260506034544 | 17 | 0 | 0.0 | 1.6 | 0.00 | 0.51 | 0.43 | 62 | 1015.8 |